Weather in Kirbi

Russia / Republic of Tatarstan     55°33′38″N   49°18′58″E
temp.,
°C
wind,
m/s
gust,
m/s
humid.,
%
clouds,
%
prec.,
mm/h
press.,
hPa
HPBL,
m
3 march, wed
wed300:00−6w47959 0.0 1000130
03:00−7w47959 0.0 1000105
06:00−5w499567 0.0 1000185
09:00−4nw7109282 0.1 1001572
12:00−3wnw71090100 0.1 1002741
15:00−4nw71187100 0.4 1004795
18:00−5nw61187100 0.1 1005720
21:00−6wnw51087100 0.1 1006644
4 march, thu
thu400:00−8w499298 0.0 1004264
03:00−9wsw5129382 0.1 1003314
06:00−5wsw61393100 0.2 1000476
09:00−2wsw81489100 0.5 998813
12:00−1sw9139499 0.4 995922
15:000wsw81498100 1.4 993916
18:00−2w8167772 1.1 994605
21:00−4w6148686 1.1 997478
5 march, fri
fri500:00−7w41090100 0.0 999209
03:00−8w3594100 0.0 100087
06:00−8nw2295100 0.1 100137
09:00−8n4694100 0.3 1002284
12:00−8n4684100 0.1 1003415
15:00−8nnw488567 0.1 1006555
18:00−12wnw33890 0.0 100922
21:00−14w34920 0.0 101135
6 march, sat
sat600:00−14w34910 0.0 101236
03:00−15wsw33904 0.0 101326
06:00−17sw228715 0.0 101220
09:00−13s23867 0.0 1012128
12:00−9s358979 0.0 1011310
15:00−9s249087 0.0 1009344
18:00−11sw2296100 0.2 100921
21:00−11wnw359598 0.3 1010105
7 march, sun
sun700:00−14nw499397 0.1 1010218
03:00−20wnw459667 0.1 101283
06:00−20w34980 0.0 101247
09:00−17wsw37934 0.0 1012211
12:00−12ssw589026 0.0 1010362
15:00−10ssw8138649 0.0 1007669
18:00−9ssw81593100 0.3 1004922
21:00−8ssw81493100 1.0 1000862